Location: Beetenbrück
(52.8113°N, 9.5946°E)
Time: 21:22:38
(UTC+00:00)

Cosmos 2237 Rocket - Pass Details

Date: 14 April 2026
Orbit: 833 x 850 km, 71.0° (Epoch: 12 May)

Event Time Altitude Azimuth Distance (km) Brightness Sun altitude
Rises 21:39:31 0° 233° (SW) 3,399 5.3 -23.8°
Reaches altitude 10° 21:42:05 10° 239° (WSW) 2,469 4.6 -24.0°
Maximum altitude 21:47:30 45° 312° (NW) 1,153 3.2 -24.4°
Drops below altitude 10° 21:52:58 10° 25° (NNE) 2,488 5.1 -24.7°
Sets 21:55:33 0° 31° (NNE) 3,428 5.8 -24.9°
